Kingsville NAS, TX

4:09 AM CDT on April 23, 2017 (GMT -0500)
Kingsville Naval Air Station

Weather History for KNQI - April, 2014

Change the Weather History Date:

Sunday, April 27, 2014

  Actual Average Record
Temperature  
Mean Temperature 90 °F -  
Max Temperature 109 °F 83 °F 109 °F (2014)
Min Temperature 72 °F 64 °F 55 °F (1997)
Cooling Degree Days 26    
Growing Degree Days 40 (Base 50)    
Moisture  
Dew Point 69 °F    
Average Humidity 64    
Maximum Humidity 97    
Minimum Humidity 11    
Precipitation  
Precipitation 0.00 in - - ()
Sea Level Pressure  
Sea Level Pressure 29.52 in    
Wind  
Wind Speed 11 mph (SSE)    
Max Wind Speed 22 mph    
Max Gust Speed 29 mph    
Visibility 10 miles    
Events      
Averages and records for this station are not official NWS values.
T = Trace of Precipitation, MM = Missing Value Source: NWS Daily Summary

Daily Weather History Graph

Daily Weather History Graph

Search for Another Location

Airport or City:

Trip Planner

Search our weather history database for the weather conditions in past years. The results will help you decide how hot, cold, wet, or windy it might be!

Date:

Astronomy

Apr. 27, 2014 Rise Set
Actual Time 6:55 AM CDT 8:02 PM CDT
Civil Twilight 6:30 AM CDT 8:27 PM CDT
Nautical Twilight 6:02 AM CDT 8:56 PM CDT
Astronomical Twilight 5:32 AM CDT 9:26 PM CDT
Moon 5:46 AM CDT (4/27) 6:45 PM CDT (4/27)
Length of Visible Light 13h 56m
Length of Day
13h 07m
Waning Crescent, 3% of the Moon is Illuminated
Apr 27
Waning Crescent
Apr 29
New
May 6
First Quarter
May 14
Full
May 21
Last Quarter

Hourly Weather History & Observations

Time (CDT) Temp. Heat Index Dew Point Humidity Pressure Visibility Wind Dir Wind Speed Gust Speed Precip Events Conditions
12:56 AM 75.9 °F - 73.9 °F 94% 29.64 in 9.0 mi SSE 15.0 mph - N/A   Clear
1:56 AM 75.9 °F - 73.0 °F 91% 29.62 in 10.0 mi SSE 11.5 mph - N/A   Clear
2:56 AM 75.0 °F - 73.0 °F 94% 29.57 in 10.0 mi SE 10.4 mph - N/A   Clear
3:56 AM 73.0 °F - 71.1 °F 93% 29.57 in 7.0 mi East 3.5 mph - N/A   Clear
4:56 AM 72.0 °F - 71.1 °F 97% 29.56 in 9.0 mi SE 4.6 mph - N/A   Clear
5:56 AM 72.0 °F - 71.1 °F 97% 29.55 in 8.0 mi SSE 4.6 mph - N/A   Clear
6:56 AM 72.0 °F - 71.1 °F 97% 29.56 in 9.0 mi South 5.8 mph - N/A   Clear
7:56 AM 75.0 °F - 73.9 °F 96% 29.56 in 9.0 mi SSE 9.2 mph - N/A   Clear
8:56 AM 81.0 °F 86.2 °F 73.9 °F 79% 29.57 in 10.0 mi South 21.9 mph 25.3 mph N/A   Partly Cloudy
9:56 AM 87.1 °F 95.4 °F 73.9 °F 65% 29.57 in 10.0 mi South 21.9 mph 28.8 mph N/A   Clear
10:56 AM 93.0 °F 101.9 °F 73.0 °F 52% 29.57 in 10.0 mi SSW 18.4 mph - N/A   Clear
11:56 AM 96.1 °F 102.9 °F 70.0 °F 43% 29.56 in 10.0 mi SW 15.0 mph 20.7 mph N/A   Clear
12:56 PM 99.0 °F 103.5 °F 66.9 °F 35% 29.55 in 10.0 mi West 13.8 mph 19.6 mph N/A   Clear
1:56 PM 102.0 °F 106.6 °F 66.0 °F 31% 29.51 in 10.0 mi Variable 3.5 mph - N/A   Clear
2:56 PM 104.0 °F 105.3 °F 61.0 °F 24% 29.47 in 10.0 mi Calm Calm - N/A   Clear
3:56 PM 109.0 °F - 46.0 °F 12% 29.45 in 10.0 mi West 8.1 mph - N/A   Partly Cloudy
4:56 PM 108.0 °F - 43.0 °F 11% 29.43 in 10.0 mi WSW 5.8 mph - N/A   Partly Cloudy
5:24 PM 102.0 °F 108.8 °F 69.1 °F 34% 29.43 in 10.0 mi East 16.1 mph - N/A   Partly Cloudy
5:56 PM 100.0 °F 109.3 °F 72.0 °F 40% 29.42 in 10.0 mi East 15.0 mph - N/A   Partly Cloudy
6:56 PM 93.9 °F 103.4 °F 73.0 °F 51% 29.43 in 10.0 mi East 12.7 mph - N/A   Scattered Clouds
7:56 PM 89.1 °F 98.0 °F 73.9 °F 61% 29.44 in 10.0 mi ESE 10.4 mph - N/A   Scattered Clouds
8:56 PM 87.1 °F 96.3 °F 75.0 °F 67% 29.47 in 10.0 mi SSE 17.3 mph - N/A   Clear
9:56 PM 84.0 °F 91.9 °F 75.0 °F 74% 29.50 in 10.0 mi SSE 11.5 mph - N/A   Clear
10:56 PM 80.1 °F 84.5 °F 73.9 °F 81% 29.52 in 10.0 mi SE 6.9 mph - N/A   Clear
11:56 PM 79.0 °F - 73.0 °F 82% 29.52 in 10.0 mi South 15.0 mph - N/A   Clear